Regional Weather Roundup
Issued by NWS

Home | Current Version | Previous Version | Text Only | Print | Product List | Glossary Off
Versions: 1 2 3 4 5 6 7 8 9 10 11 12 13 14 15 16 17 18 19 20 21 22 23 24 25 26 27 28 29 30 31 32 33 34 35 36 37 38 39 40 41 42 43 44 45 46 47 48 49 50

358
ASUS43 KMKX 241459
RWRWI

WISCONSIN REGIONAL WEATHER ROUNDUP
NATIONAL WEATHER SERVICE MILWAUKEE/SULLIVAN WI
900 AM CST TUE JAN 24 2017

NOTE: "FAIR" INDICATES FEW OR NO CLOUDS BELOW 12,000 FEET WITH NO
SIGNIFICANT WEATHER AND/OR OBSTRUCTIONS TO VISIBILITY.

WIZ001-002-006>008-014>016-023>028-241600-
NORTHWEST WISCONSIN

CITY           SKY/WX    TMP DP  RH WIND       PRES   REMARKS
SUPERIOR ARPT  CLOUDY    32  27  81 CALM      29.89S
ASHLAND        CLOUDY    33  31  92 W5        29.88R WCI  29
HAYWARD        LGT SNOW  32  30  92 CALM      29.87S FOG
SIREN          CLOUDY    31  31  99 CALM      29.89S
CUMBERLAND     CLOUDY    32  30  93 CALM      29.87S
RICE LAKE      CLOUDY    32  31  98 CALM      29.89S
CHETEK         CLOUDY    32  31  96 CALM      29.88S FOG
LADYSMITH      CLOUDY    33  32  99 CALM      29.89R FOG
EAU CLAIRE     CLOUDY    32  30  92 CALM      29.88S FOG
MENOMONIE        N/A    N/A N/A N/A MISG        N/A
NEW RICHMOND   CLOUDY    31  28  89 CALM      29.89S
OSCEOLA        CLOUDY    32  28  86 CALM      29.92F
$$

WIZ003>005-009-010-017-018-241600-
NORTH CENTRAL WISCONSIN

CITY           SKY/WX    TMP DP  RH WIND       PRES   REMARKS
MANITOWISH WTR CLOUDY    32  32 100 CALM      29.83R
ARBOR VITAE    CLOUDY    34  33  94 CALM      29.83R
WOODRUFF       CLOUDY    34  33  94 CALM      29.83R
RHINELANDER    CLOUDY    34  32  92 NW7       29.84R WCI  28
EAGLE RIVER    CLOUDY    32  32 100 NW7       29.82R WCI  26
LAND O LAKES   CLOUDY    33  33 100 NW3       29.83S
PHILLIPS       CLOUDY    32  32  99 CALM      29.84S
TOMAHAWK       CLOUDY    32  31  96 W3        29.85R
MEDFORD        CLOUDY    31  30  96 CALM      29.85R
MERRILL        CLOUDY    33  32  95 NW3         N/A
$$

WIZ029-030-035-036-043>047-241600-
CENTRAL WISCONSIN

CITY           SKY/WX    TMP DP  RH WIND       PRES   REMARKS
WAUSAU         CLOUDY    33  32  96 W6        29.85R WCI  28
MOSINEE        FLURRIES  34  34 100 W5        29.87R WCI  30
MARSHFIELD     CLOUDY    33  31  92 NW6       29.85S FOG     WCI  28
STEVENS POINT  CLOUDY    32  31  96 CALM      29.87R
WAUPACA        CLOUDY    37  34  89 CALM      29.87R
WAUTOMA        CLOUDY    35  34  96 W3        29.88R
WISC RAPIDS    CLOUDY    34  33  96 CALM      29.88S
CAMP DOUGLAS   NOT AVBL
$$

WIZ011>013-019>022-031-037>040-048>050-241600-
NORTHEAST WISCONSIN

CITY           SKY/WX    TMP DP  RH WIND       PRES   REMARKS
ANTIGO         CLOUDY    32  32  99 NW6       29.83S WCI  27
SHAWANO        CLOUDY    37  34  90 CALM      29.86R
OCONTO         CLOUDY    34  33  99 W5        29.85R WCI  29
STURGEON BAY   CLOUDY    34  34 100 W5        29.85R FOG     WCI  30
GREEN BAY      CLOUDY    37  36  96 NW7       29.85S WCI  32
MANITOWOC      CLOUDY    36  34  93 W7        29.85R WCI  30
APPLETON         N/A     36  36 100 NW6       29.84R FOG     WCI  31
CLINTONVILLE   CLOUDY    36  34  93 W3        29.86R
OSHKOSH        CLOUDY    35  33  92 W6        29.86R FOG     WCI  30
$$

WIZ032>034-041-042-053>061-241600-
SOUTHWEST WISCONSIN

CITY           SKY/WX    TMP DP  RH WIND       PRES   REMARKS
LA CROSSE      CLOUDY    35  30  82 N3        29.89S
SPARTA         CLOUDY    32  32 100 CALM      29.90S FOG
VIROQUA        CLOUDY    32  32 100 CALM      29.86F
BOSCOBEL       CLOUDY    35  32  88 CALM      29.89S
PRAIRIE DU CHI CLOUDY    33  31  93 CALM      29.88F
PLATTEVILLE    CLOUDY    33  33 100 CALM      29.87F
$$

WIZ056-057-062-063-064-067-068-241600-
SOUTH CENTRAL WISCONSIN

CITY           SKY/WX    TMP DP  RH WIND       PRES   REMARKS
REEDSBURG      CLOUDY    33  33  99 CALM      29.88S
BARABOO/DELLS  CLOUDY    33  32  96 CALM      29.88R
LONE ROCK      NOT AVBL
MINERAL POINT  CLOUDY    34  34 100 CALM      29.86F
MADISON        CLOUDY    35  31  85 W3        29.89S
MIDDLETON      CLOUDY    35  34  94 N5        29.89S WCI  31
WATERTOWN      CLOUDY    34  34 100 W5        29.88R WCI  30
MONROE         CLOUDY    32  32 100 N3        29.86F
JANESVILLE     CLOUDY    36  34  93 CALM      29.88F
$$

WIZ051-052-058>065-066-070>072-241600-
SOUTHEAST WISCONSIN

CITY           SKY/WX    TMP DP  RH WIND       PRES   REMARKS
MILWAUKEE      CLOUDY    37  33  85 NW5       29.88R WCI  33
WAUKESHA       CLOUDY    34  32  93 W8        29.89R WCI  27
MILWAUKEE/TIMM CLOUDY    36  32  87 W6        29.89R WCI  31
RACINE         CLOUDY    36  32  85 W7        29.90R WCI  30
KENOSHA        CLOUDY    36  32  85 W7        29.89R WCI  30
FOND DU LAC    CLOUDY    36  32  85 W5        29.87R WCI  32
SHEBOYGAN      CLOUDY    35  33  92 W8        29.86R FOG     WCI  29
WEST BEND      CLOUDY    34  34 100 W5        29.86R FOG     WCI  30
JUNEAU         CLOUDY    33  33  99 W3        29.89R FOG
$$

LSZ147-162-241600-
LAKE SUPERIOR

STATION/POSITION TIME  TEMP    WIND        PRES    WAVE
                       AIR SEA DIR/SP/G            HT/PER
                 (UTC) (F)     (DEG/KT/KT) (MB)    (FT/S)
DEVILS ISLAND    1400   34     210/ 10/ 10 1011.7R
PORT WING        1430   33     220/  4/  5 1012.2R
SAXON HARBOR     1440   34     230/  2/  3 1011.5S
$$

LMZ867-665-643>646-241600-
LAKE MICHIGAN

STATION/POSITION TIME  TEMP    WIND        PRES    WAVE
                       AIR SEA DIR/SP/G            HT/PER
                 (UTC) (F)     (DEG/KT/KT) (MB)    (FT/S)
NORTHPORT PIER   1440   35     290/  5/ 11 1009.8S
SISTER BAY       1405   33        CALM       N/A
ALGOMA LAKESHORE 1409             CALM       N/A
KEWAUNEE LAKESHO 1430   35     300/  5/  7 1010.1R
SHEBOYGAN LAKESH 1400   36     290/  9/ 11 1011.0R
PORT WASHINGTON  1430   36     270/  4/  7 1012.5R
KENOSHA   LAKESH 1400   36     320/  6/ 11 1011.9
$$

TC  - TEMPERATURE IN CELSIUS
VSB - VISIBILITY IN STATUTE MILES
WCI - WIND CHILL INDEX
HX  - HEAT INDEX





USA.gov is the U.S. government's official web portal to all federal, state and local government web resources and services.